• In Deutschland
  • Länderverzeichnis
  • Für 7 Tage
  • Wassertemperatur
  • Satellitenkarten
  • Wetterkarte
  • Widgets
  • user-avatar
    Anmelden

    Stündliche Wetter Saarlouis

    Heute, 17 Oktober, Dienstag

    Zeit Temperatur Niederschläge Wind Luftdruck Luftfeuchtigkeit
    00:00 +14°C° 0 mm 1 m/S 751 mmHg 78%
    01:00 +13°C° 0 mm 1 m/S 751 mmHg 79%
    02:00 +13°C° 0 mm 1 m/S 751 mmHg 80%
    03:00 +13°C° 0 mm 1 m/S 751 mmHg 81%
    04:00 +12°C° 0 mm 1 m/S 751 mmHg 82%
    05:00 +12°C° 0 mm 1 m/S 751 mmHg 83%
    06:00 +12°C° 0 mm 1 m/S 751 mmHg 84%
    07:00 +14°C° 0 mm 1 m/S 751 mmHg 79%
    08:00 +16°C° 0 mm 1 m/S 751 mmHg 74%
    09:00 +19°C° 0 mm 1 m/S 751 mmHg 69%
    10:00 +20°C° 0 mm 1 m/S 750 mmHg 67%
    11:00 +21°C° 0 mm 1 m/S 750 mmHg 64%
    12:00 +23°C° 0 mm 1 m/S 750 mmHg 62%
    13:00 +23°C° 0 mm 1 m/S 749 mmHg 64%
    14:00 +23°C° 0 mm 1 m/S 749 mmHg 66%
    15:00 +23°C° 0 mm 1 m/S 748 mmHg 68%
    16:00 +21°C° 0 mm 1 m/S 748 mmHg 73%
    17:00 +19°C° 0 mm 1 m/S 748 mmHg 78%
    18:00 +16°C° 0 mm 1 m/S 747 mmHg 84%
    19:00 +15°C° 0 mm 1 m/S 747 mmHg 84%
    20:00 +14°C° 0 mm 1 m/S 747 mmHg 84%
    21:00 +14°C° 0 mm 1 m/S 747 mmHg 84%
    22:00 +14°C° 0 mm 1 m/S 747 mmHg 82%
    23:00 +13°C° 0 mm 1 m/S 747 mmHg 81%

    Morgen, 18 Oktober, Mittwoch

    Zeit Temperatur Niederschläge Wind Luftdruck Luftfeuchtigkeit
    00:00 +13°C° 0 mm 1 m/S 746 mmHg 79%
    01:00 +12°C° 0 mm 1 m/S 746 mmHg 78%
    02:00 +12°C° 0 mm 1 m/S 746 mmHg 77%
    03:00 +12°C° 0 mm 2 m/S 746 mmHg 75%
    04:00 +10°C° 0 mm 2 m/S 745 mmHg 77%
    05:00 +10°C° 0 mm 2 m/S 745 mmHg 78%
    06:00 +10°C° 0 mm 2 m/S 745 mmHg 79%
    07:00 +12°C° 0 mm 2 m/S 745 mmHg 75%
    08:00 +13°C° 0 mm 3 m/S 745 mmHg 71%
    09:00 +16°C° 0 mm 3 m/S 745 mmHg 67%
    10:00 +17°C° 0 mm 3 m/S 745 mmHg 64%
    11:00 +19°C° 0 mm 3 m/S 745 mmHg 61%
    12:00 +20°C° 0 mm 3 m/S 745 mmHg 58%
    13:00 +20°C° 0 mm 3 m/S 745 mmHg 61%
    14:00 +20°C° 0 mm 2 m/S 744 mmHg 63%
    15:00 +20°C° 0 mm 2 m/S 744 mmHg 66%
    16:00 +18°C° 0 mm 2 m/S 744 mmHg 71%
    17:00 +16°C° 0 mm 1 m/S 744 mmHg 77%
    18:00 +15°C° 0 mm 1 m/S 744 mmHg 83%
    19:00 +14°C° 0 mm 1 m/S 744 mmHg 83%
    20:00 +14°C° 0 mm 1 m/S 744 mmHg 83%
    21:00 +13°C° 0 mm 1 m/S 744 mmHg 83%
    22:00 +13°C° 0 mm 1 m/S 744 mmHg 82%
    23:00 +13°C° 0 mm 1 m/S 744 mmHg 81%

    übermorgen, 19 Oktober, Donnerstag

    Zeit Temperatur Niederschläge Wind Luftdruck Luftfeuchtigkeit
    00:00 +13°C° 0 mm 1 m/S 744 mmHg 80%
    01:00 +12°C° 0 mm 1 m/S 744 mmHg 80%
    02:00 +12°C° 0 mm 1 m/S 744 mmHg 79%
    03:00 +12°C° 0 mm 1 m/S 743 mmHg 79%
    04:00 +12°C° 0 mm 1 m/S 743 mmHg 79%
    05:00 +12°C° 0 mm 1 m/S 743 mmHg 80%
    06:00 +12°C° 0 mm 1 m/S 743 mmHg 80%
    07:00 +14°C° 0 mm 2 m/S 743 mmHg 75%
    08:00 +15°C° 0 mm 2 m/S 744 mmHg 70%
    09:00 +17°C° 0 mm 3 m/S 744 mmHg 65%
    10:00 +19°C° 0 mm 3 m/S 744 mmHg 61%
    11:00 +20°C° 0 mm 4 m/S 743 mmHg 58%
    12:00 +21°C° 0 mm 4 m/S 743 mmHg 54%
    13:00 +21°C° 0 mm 4 m/S 743 mmHg 57%
    14:00 +20°C° 0 mm 3 m/S 743 mmHg 59%
    15:00 +20°C° 0 mm 3 m/S 742 mmHg 62%
    16:00 +19°C° 0 mm 3 m/S 742 mmHg 64%
    17:00 +18°C° 0 mm 2 m/S 742 mmHg 65%
    18:00 +16°C° 0 mm 2 m/S 742 mmHg 67%
    19:00 +16°C° 0 mm 2 m/S 742 mmHg 67%
    20:00 +16°C° 0 mm 3 m/S 742 mmHg 67%
    21:00 +14°C° 0 mm 3 m/S 742 mmHg 67%
    22:00 +14°C° 0 mm 3 m/S 742 mmHg 67%
    23:00 +14°C° 0 mm 3 m/S 742 mmHg 68%

    20 Oktober, Freitag

    Zeit Temperatur Niederschläge Wind Luftdruck Luftfeuchtigkeit
    00:00 +14°C° 0 mm 3 m/S 742 mmHg 69%
    01:00 +14°C° 0,1 mm 4 m/S 742 mmHg 73%
    02:00 +14°C° 0,1 mm 4 m/S 742 mmHg 76%
    03:00 +14°C° 0,1 mm 5 m/S 742 mmHg 80%
    04:00 +14°C° 0,1 mm 5 m/S 742 mmHg 82%
    05:00 +14°C° 0,1 mm 5 m/S 742 mmHg 84%
    06:00 +14°C° 0,1 mm 5 m/S 743 mmHg 86%
    07:00 +14°C° 0,1 mm 6 m/S 743 mmHg 85%
    08:00 +15°C° 0,1 mm 6 m/S 744 mmHg 83%
    09:00 +15°C° 0,1 mm 6 m/S 745 mmHg 82%
    10:00 +16°C° 0,1 mm 6 m/S 745 mmHg 78%
    11:00 +16°C° 0,1 mm 6 m/S 745 mmHg 75%
    12:00 +17°C° 0,1 mm 6 m/S 745 mmHg 71%
    13:00 +17°C° 0 mm 5 m/S 745 mmHg 72%
    14:00 +17°C° 0 mm 5 m/S 745 mmHg 74%
    15:00 +18°C° 0 mm 4 m/S 744 mmHg 75%
    16:00 +17°C° 0 mm 3 m/S 744 mmHg 80%
    17:00 +15°C° 0 mm 2 m/S 744 mmHg 86%
    18:00 +14°C° 0 mm 2 m/S 744 mmHg 91%
    19:00 +14°C° 0 mm 2 m/S 744 mmHg 91%
    20:00 +14°C° 0 mm 2 m/S 744 mmHg 91%
    21:00 +14°C° 0 mm 2 m/S 743 mmHg 90%
    22:00 +13°C° 0 mm 3 m/S 743 mmHg 89%
    23:00 +13°C° 0 mm 3 m/S 743 mmHg 87%

    21 Oktober, Samstag

    Zeit Temperatur Niederschläge Wind Luftdruck Luftfeuchtigkeit
    00:00 +14°C° 0 mm 3 m/S 742 mmHg 85%
    01:00 +14°C° 0,1 mm 4 m/S 742 mmHg 83%
    02:00 +14°C° 0,1 mm 4 m/S 741 mmHg 81%
    03:00 +15°C° 0,1 mm 5 m/S 741 mmHg 78%
    04:00 +15°C° 0,1 mm 5 m/S 741 mmHg 77%
    05:00 +15°C° 0,1 mm 6 m/S 741 mmHg 75%
    06:00 +15°C° 0,1 mm 6 m/S 741 mmHg 74%
    07:00 +15°C° 0,8 mm 6 m/S 741 mmHg 78%
    08:00 +15°C° 0,8 mm 6 m/S 742 mmHg 83%
    09:00 +15°C° 0,8 mm 6 m/S 742 mmHg 87%
    10:00 +14°C° 0,4 mm 6 m/S 742 mmHg 85%
    11:00 +14°C° 0,4 mm 7 m/S 742 mmHg 83%
    12:00 +14°C° 0,4 mm 7 m/S 742 mmHg 81%
    13:00 +14°C° 0,1 mm 7 m/S 742 mmHg 77%
    14:00 +15°C° 0,1 mm 7 m/S 742 mmHg 73%
    15:00 +15°C° 0,1 mm 6 m/S 742 mmHg 68%
    16:00 +14°C° 0 mm 6 m/S 742 mmHg 69%
    17:00 +13°C° 0 mm 6 m/S 743 mmHg 70%
    18:00 +12°C° 0 mm 5 m/S 743 mmHg 71%
    19:00 +10°C° 0 mm 5 m/S 744 mmHg 70%
    20:00 +10°C° 0 mm 5 m/S 744 mmHg 70%
    21:00 +9°C° 0 mm 5 m/S 744 mmHg 69%
    22:00 +9°C° 0 mm 5 m/S 744 mmHg 70%
    23:00 +8°C° 0 mm 5 m/S 745 mmHg 72%

    22 Oktober, Sonntag

    Zeit Temperatur Niederschläge Wind Luftdruck Luftfeuchtigkeit
    00:00 +8°C° 0 mm 5 m/S 745 mmHg 73%
    01:00 +8°C° 0 mm 5 m/S 744 mmHg 75%
    02:00 +7°C° 0 mm 5 m/S 744 mmHg 76%
    03:00 +7°C° 0 mm 5 m/S 744 mmHg 78%
    04:00 +7°C° 0 mm 5 m/S 744 mmHg 80%
    05:00 +7°C° 0 mm 5 m/S 744 mmHg 81%
    06:00 +5°C° 0 mm 6 m/S 744 mmHg 82%
    07:00 +7°C° 0 mm 6 m/S 744 mmHg 79%
    08:00 +8°C° 0 mm 7 m/S 745 mmHg 75%
    09:00 +9°C° 0 mm 7 m/S 745 mmHg 71%
    10:00 +9°C° 0 mm 8 m/S 745 mmHg 69%
    11:00 +9°C° 0 mm 8 m/S 745 mmHg 67%
    12:00 +10°C° 0 mm 8 m/S 745 mmHg 66%
    13:00 +9°C° 0,2 mm 8 m/S 745 mmHg 68%
    14:00 +9°C° 0,2 mm 7 m/S 745 mmHg 70%
    15:00 +9°C° 0,2 mm 7 m/S 745 mmHg 73%
    16:00 +8°C° 0,1 mm 6 m/S 745 mmHg 74%
    17:00 +8°C° 0,1 mm 6 m/S 745 mmHg 76%
    18:00 +8°C° 0,1 mm 6 m/S 746 mmHg 78%
    19:00 +8°C° 0,1 mm 6 m/S 746 mmHg 79%
    20:00 +8°C° 0,1 mm 6 m/S 746 mmHg 81%
    21:00 +8°C° 0,1 mm 6 m/S 746 mmHg 82%
    22:00 +8°C° 0,1 mm 6 m/S 746 mmHg 83%
    23:00 +8°C° 0,1 mm 6 m/S 746 mmHg 85%
    Mehr zeigen